Location: *
(58.4167°N, 22.5000°E)
Time: 12:20:24
(UTC+00:00)

Helios 1B rocket - Pass Details

Date: 22 September 2019
Orbit: 575 x 584 km, 98.1° (Epoch: 20 October)

Event Time Altitude Azimuth Distance (km) Brightness Sun altitude
Rises 23:07:06 0° 13° (NNE) 2,805 7.1 -30.8°
Reaches altitude 10° 23:09:20 10° 7° (N) 1,901 5.9 -30.7°
Enters shadow 23:11:31 27° 347° (NNW) 1,128 4.3 -30.7°
